DW1779 Weather Reports


time (UTC)temp
C
wind
direction
speed
KPH
gust
KPH
rain 1hr
cm
rain 24hr
cm
rain mn
cm
humidity
%
barometer
mb
20260906161611 31 132 4.8 14.5 0.00 0.00 0.00 70 1017.1
20260906161045 32 78 4.8 14.5 0.00 0.00 0.00 71 1017.3
20260906160644 31 210 4.8 14.5 0.00 0.00 0.00 71 1017.4
20260906160058 31 99 4.8 14.5 0.00 0.00 0.00 71 1017.3
20260906155600 31 116 4.8 14.5 0.00 0.00 0.00 72 1017.4
20260906155055 31 54 4.8 16.1 0.00 0.00 0.00 73 1017.3
20260906154558 31 39 4.8 14.5 0.00 0.00 0.00 73 1017.3
20260906154053 31 13 4.8 16.1 0.00 0.00 0.00 73 1017.4
20260906153552 31 23 3.2 16.1 0.00 0.00 0.00 74 1017.3
20260906153108 31 182 3.2 9.7 0.00 0.00 0.00 73 1017.3
20260906152549 30 22 3.2 9.7 0.00 0.00 0.00 75 1017.2
20260906152049 30 156 1.6 14.5 0.00 0.00 0.00 75 1017.2
20260906151547 30 135 3.2 14.5 0.00 0.00 0.00 76 1017.2
20260906151045 30 128 3.2 12.9 0.00 0.00 0.00 76 1017.1
20260906150643 30 69 3.2 14.5 0.00 0.00 0.00 78 1017.0
20260906150106 29 312 4.8 14.5 0.00 0.00 0.00 79 1017.1
20260906145556 29 54 4.8 14.5 0.00 0.00 0.00 79 1017.1
20260906145053 28 278 3.2 9.7 0.00 0.00 0.00 80 1017.0
20260906144552 28 48 3.2 12.9 0.00 0.00 0.00 81 1017.0
20260906144049 28 97 3.2 12.9 0.00 0.00 0.00 81 1017.0
20260906143549 28 42 4.8 12.9 0.00 0.00 0.00 82 1017.0
20260906143047 28 55 3.2 9.7 0.00 0.00 0.00 83 1017.0
20260906142547 27 71 1.6 8.0 0.00 0.00 0.00 83 1017.0
20260906142045 27 13 3.2 12.9 0.00 0.00 0.00 84 1016.9
20260906141558 27 109 3.2 12.9 0.00 0.00 0.00 84 1016.9
20260906141042 27 80 3.2 12.9 0.00 0.00 0.00 85 1017.0
20260906140641 26 126 1.6 12.9 0.00 0.00 0.00 87 1017.0
20260906140055 26 56 3.2 9.7 0.00 0.00 0.00 87 1017.0
20260906135554 26 122 3.2 8.0 0.00 0.00 0.00 88 1016.9
20260906135052 25 73 1.6 8.0 0.00 0.00 0.00 89 1016.9
20260906134551 25 100 0.0 8.0 0.00 0.00 0.00 90 1016.9
20260906134049 25 57 0.0 6.4 0.00 0.00 0.00 91 1017.0
20260906133547 25 114 1.6 9.7 0.00 0.00 0.00 92 1016.9
20260906133055 24 68 3.2 9.7 0.00 0.00 0.00 94 1016.8
20260906132545 24 100 1.6 9.7 0.00 0.00 0.00 94 1016.9
20260906132043 23 86 3.2 9.7 0.00 0.00 0.00 96 1016.9
20260906131558 23 32 3.2 6.4 0.00 0.00 0.00 96 1016.9
20260906131041 23 192 0.0 6.4 0.00 0.00 0.00 96 1016.7
20260906130637 23 111 0.0 6.4 0.00 0.00 0.00 97 1016.7
20260906130054 22 115 0.0 6.4 0.00 0.00 0.00 98 1016.6
20260906125545 22 128 0.0 4.8 0.00 0.00 0.00 98 1016.5
20260906125042 21 182 0.0 4.8 0.00 0.00 0.00 98 1016.5
20260906124542 21 146 0.0 3.2 0.00 0.00 0.00 98 1016.5
20260906124042 20 102 0.0 3.2 0.00 0.00 0.00 97 1016.5
20260906123541 20 85 0.0 3.2 0.00 0.00 0.00 97 1016.5
20260906123041 20 86 0.0 3.2 0.00 0.00 0.00 97 1016.6
20260906122540 20 173 0.0 3.2 0.00 0.00 0.00 98 1016.6
20260906122039 20 174 0.0 0.0 0.00 0.00 0.00 97 1016.5
20260906121541 20 13 0.0 0.0 0.00 0.00 0.00 97 1016.4
20260906121037 20 13 0.0 0.0 0.00 0.00 0.00 97 1016.5
20260906120636 20 13 0.0 0.0 0.00 0.00 0.00 97 1016.5
20260906115554 20 13 0.0 0.0 0.00 0.00 0.00 97 1016.1
20260906115057 20 13 0.0 0.0 0.00 0.00 0.00 97 1016.2
20260906114556 20 13 0.0 0.0 0.00 0.00 0.00 97 1016.2
20260906114053 20 13 0.0 0.0 0.00 0.00 0.00 97 1016.1
20260906113553 20 13 0.0 0.0 0.00 0.00 0.00 97 1016.0
20260906113053 20 13 0.0 0.0 0.00 0.00 0.00 97 1016.0
20260906112552 20 13 0.0 0.0 0.00 0.00 0.00 97 1016.0
20260906112052 20 13 0.0 0.0 0.00 0.00 0.00 97 1016.0
20260906111551 20 13 0.0 0.0 0.00 0.00 0.00 97 1016.0
20260906111050 20 13 0.0 1.6 0.00 0.00 0.00 97 1016.0
20260906110651 20 13 0.0 3.2 0.00 0.00 0.00 97 1015.8
20260906110039 20 22 0.0 3.2 0.00 0.00 0.00 97 1015.9
20260906105539 20 32 0.0 0.0 0.00 0.00 0.00 97 1015.8
20260906105039 20 32 0.0 0.0 0.00 0.00 0.00 97 1015.9
20260906104538 20 32 0.0 0.0 0.00 0.00 0.00 97 1015.7
20260906104039 20 32 0.0 0.0 0.00 0.00 0.00 97 1015.7
20260906103542 20 32 0.0 0.0 0.00 0.00 0.00 97 1015.7
20260906103040 20 32 0.0 0.0 0.00 0.00 0.00 97 1015.7
20260906102537 20 32 0.0 0.0 0.00 0.00 0.00 97 1015.6
20260906102036 20 32 0.0 0.0 0.00 0.00 0.00 97 1015.6
20260906101538 20 32 0.0 0.0 0.00 0.00 0.00 97 1015.6
20260906101035 20 32 0.0 0.0 0.00 0.00 0.00 97 1015.4
20260906100634 20 32 0.0 0.0 0.00 0.00 0.00 97 1015.4
20260906100038 20 32 0.0 0.0 0.00 0.00 0.00 97 1015.4
20260906095537 20 32 0.0 0.0 0.00 0.00 0.00 97 1015.4
20260906095037 20 32 0.0 0.0 0.00 0.00 0.00 97 1015.3
20260906094543 20 32 0.0 0.0 0.00 0.00 0.00 97 1015.1
20260906094036 20 32 0.0 0.0 0.00 0.00 0.00 97 1015.1
20260906093536 20 32 0.0 0.0 0.00 0.00 0.00 97 1015.1
20260906093037 21 32 0.0 0.0 0.00 0.00 0.00 97 1015.1
20260906092535 21 32 0.0 0.0 0.00 0.00 0.00 97 1015.1
20260906092036 21 32 0.0 0.0 0.00 0.00 0.00 97 1015.0
20260906091536 21 32 0.0 0.0 0.00 0.00 0.00 97 1015.0
20260906091037 21 32 0.0 0.0 0.00 0.00 0.00 97 1015.0
20260906090634 21 32 0.0 0.0 0.00 0.00 0.00 97 1015.0
20260906090047 21 32 0.0 0.0 0.00 0.00 0.00 97 1015.0
20260906085538 21 32 0.0 0.0 0.00 0.00 0.00 96 1014.9
20260906085039 21 32 0.0 0.0 0.00 0.00 0.00 96 1015.0
20260906084535 21 32 0.0 0.0 0.00 0.00 0.00 96 1014.9
20260906084036 21 32 0.0 0.0 0.00 0.00 0.00 96 1014.8
20260906083537 21 32 0.0 0.0 0.00 0.00 0.00 96 1014.8
20260906083037 21 32 0.0 0.0 0.00 0.00 0.00 96 1014.9
20260906082536 21 32 0.0 0.0 0.00 0.00 0.00 96 1014.9
20260906082032 21 32 0.0 0.0 0.00 0.00 0.00 96 1014.9
20260906081532 21 32 0.0 0.0 0.00 0.00 0.00 96 1014.8
20260906081035 21 32 0.0 0.0 0.00 0.00 0.00 96 1014.8
20260906080631 21 32 0.0 0.0 0.00 0.00 0.00 96 1014.8
20260906080056 21 32 0.0 0.0 0.00 0.00 0.00 96 1014.8
20260906075555 21 32 0.0 0.0 0.00 0.00 0.00 96 1014.8
20260906075055 21 32 0.0 0.0 0.00 0.00 0.00 96 1014.9
20260906074554 21 32 0.0 0.0 0.00 0.00 0.00 96 1015.0
20260906074054 21 32 0.0 0.0 0.00 0.00 0.00 96 1015.0
20260906073557 21 32 0.0 0.0 0.00 0.00 0.00 96 1015.1
20260906073052 21 32 0.0 0.0 0.00 0.00 0.00 96 1015.2
20260906072552 21 32 0.0 0.0 0.00 0.00 0.00 96 1015.1
20260906072051 21 32 0.0 0.0 0.00 0.00 0.00 96 1015.2
20260906071551 21 32 0.0 0.0 0.00 0.00 0.00 96 1015.2
20260906071052 21 32 0.0 0.0 0.00 0.00 0.00 96 1015.3
20260906070650 21 32 0.0 0.0 0.00 0.00 0.00 96 1015.2
20260906070053 21 32 0.0 0.0 0.00 0.00 0.00 96 1015.2
20260906065552 21 32 0.0 0.0 0.00 0.00 0.00 95 1015.2
20260906065052 21 32 0.0 0.0 0.00 0.00 0.00 95 1015.2
20260906064552 21 32 0.0 0.0 0.00 0.00 0.00 95 1015.3
20260906064051 22 32 0.0 0.0 0.00 0.00 0.00 95 1015.4
20260906063550 22 32 0.0 0.0 0.00 0.00 0.00 95 1015.3
20260906063050 22 32 0.0 3.2 0.00 0.00 0.00 96 1015.3
20260906062549 22 32 0.0 3.2 0.00 0.00 0.00 95 1015.5
20260906062050 22 193 0.0 0.0 0.00 0.00 0.00 95 1015.4
20260906061551 22 193 0.0 0.0 0.00 0.00 0.00 95 1015.4
20260906061048 22 193 0.0 0.0 0.00 0.00 0.00 95 1015.4
20260906060648 22 193 0.0 1.6 0.00 0.00 0.00 95 1015.4
20260906060118 22 193 0.0 3.2 0.00 0.00 0.00 95 1015.5
20260906055552 22 193 0.0 3.2 0.00 0.00 0.00 95 1015.5
20260906055052 22 193 0.0 6.4 0.00 0.00 0.00 95 1015.6
20260906054605 22 193 1.6 6.4 0.00 0.00 0.00 95 1015.5
20260906054051 22 338 0.0 4.8 0.00 0.00 0.00 95 1015.4
20260906053550 22 200 1.6 4.8 0.00 0.00 0.00 95 1015.4
20260906053050 22 188 0.0 3.2 0.00 0.00 0.00 95 1015.3
20260906052551 22 188 0.0 3.2 0.00 0.00 0.00 95 1015.3
20260906052050 22 188 0.0 0.0 0.00 0.00 0.00 95 1015.3
20260906051549 22 188 0.0 0.0 0.00 0.00 0.00 95 1015.2
20260906051050 22 188 0.0 0.0 0.00 0.00 0.00 95 1015.3
20260906050649 22 188 0.0 0.0 0.00 0.00 0.00 95 1015.2
20260906050040 22 188 0.0 0.0 0.00 0.00 0.00 95 1015.3
20260906045543 22 188 0.0 0.0 0.00 0.00 0.00 95 1015.2
20260906045040 22 188 0.0 0.0 0.00 0.00 0.00 95 1015.1
20260906044540 22 188 0.0 0.0 0.00 0.00 0.00 94 1015.0
20260906044039 22 188 0.0 0.0 0.00 0.00 0.00 94 1015.1
20260906043539 22 188 0.0 0.0 0.00 0.00 0.00 94 1015.1
20260906043040 22 188 0.0 0.0 0.00 0.00 0.00 94 1015.2
20260906042539 22 188 0.0 0.0 0.00 0.00 0.00 94 1015.2
20260906042039 22 188 0.0 0.0 0.00 0.00 0.00 94 1015.2
20260906041539 22 188 0.0 0.0 0.00 0.00 0.00 94 1015.2
20260906041040 22 188 0.0 0.0 0.00 0.00 0.00 93 1015.2
20260906040639 22 188 0.0 0.0 0.00 0.00 0.00 93 1015.1
20260906040100 23 188 0.0 0.0 0.00 0.00 0.00 93 1015.0
20260906035600 23 188 0.0 0.0 0.00 0.00 0.00 93 1015.1
20260906035100 23 188 0.0 0.0 0.00 0.00 0.00 93 1015.0
20260906034606 23 188 0.0 0.0 0.00 0.00 0.00 93 1015.1
20260906034059 23 188 0.0 0.0 0.00 0.00 0.00 92 1015.0
20260906033559 23 188 0.0 0.0 0.00 0.00 0.00 92 1015.0
20260906033100 23 188 0.0 0.0 0.00 0.00 0.00 92 1015.1
20260906032559 23 188 0.0 0.0 0.00 0.00 0.00 92 1015.0
20260906032100 23 188 0.0 0.0 0.00 0.00 0.00 91 1015.0
20260906031600 23 188 0.0 3.2 0.00 0.00 0.00 91 1014.8
20260906031059 23 188 0.0 3.2 0.00 0.00 0.00 91 1015.0
20260906030700 23 188 0.0 1.6 0.00 0.00 0.00 91 1015.1
20260906030054 23 188 0.0 0.0 0.00 0.00 0.00 91 1015.0
20260906025552 23 188 0.0 0.0 0.00 0.00 0.00 91 1015.0
20260906025054 23 188 0.0 0.0 0.00 0.00 0.00 90 1015.0
20260906024555 23 188 0.0 0.0 0.00 0.00 0.00 90 1014.9
20260906024052 24 188 0.0 0.0 0.00 0.00 0.00 89 1014.9
20260906023552 24 188 0.0 0.0 0.00 0.00 0.00 89 1014.9
20260906023052 24 188 0.0 0.0 0.00 0.00 0.00 89 1014.7
20260906022551 24 188 0.0 0.0 0.00 0.00 0.00 88 1014.6
20260906022052 25 188 0.0 0.0 0.00 0.00 0.00 87 1014.6
20260906021558 25 188 0.0 0.0 0.00 0.00 0.00 88 1014.5
20260906021052 25 188 0.0 0.0 0.00 0.00 0.00 87 1014.5
20260906020651 25 188 0.0 0.0 0.00 0.00 0.00 87 1014.4
20260906020051 25 188 0.0 0.0 0.00 0.00 0.00 86 1014.3
20260906015550 25 188 0.0 0.0 0.00 0.00 0.00 86 1014.3
20260906015050 25 188 0.0 4.8 0.00 0.00 0.00 86 1014.2
20260906014552 25 188 0.0 4.8 0.00 0.00 0.00 86 1014.2
20260906014051 25 113 0.0 1.6 0.00 0.00 0.00 86 1014.0
20260906013550 25 113 0.0 0.0 0.00 0.00 0.00 85 1013.7
20260906013050 25 113 0.0 0.0 0.00 0.00 0.00 84 1013.7
20260906012549 26 113 0.0 0.0 0.00 0.00 0.00 84 1013.5
20260906012049 26 113 0.0 0.0 0.00 0.00 0.00 82 1013.5
20260906011550 26 113 0.0 0.0 0.00 0.00 0.00 83 1013.4
20260906011048 26 113 0.0 0.0 0.00 0.00 0.00 82 1013.4
20260906010649 26 113 0.0 0.0 0.00 0.00 0.00 81 1013.4
20260906010111 27 113 0.0 0.0 0.00 0.00 0.00 80 1013.2
20260906005546 27 113 0.0 0.0 0.00 0.00 0.00 79 1013.3
20260906005049 27 113 0.0 0.0 0.00 0.00 0.00 79 1013.2
20260906004559 27 113 0.0 0.0 0.00 0.00 0.00 78 1013.2
20260906004046 27 113 0.0 0.0 0.00 0.00 0.00 78 1013.2
20260906003546 28 113 0.0 0.0 0.00 0.00 0.00 78 1013.2
20260906003046 28 113 0.0 0.0 0.00 0.00 0.00 77 1013.2
20260906002546 28 113 0.0 0.0 0.00 0.00 0.00 75 1013.2
20260906002046 29 113 0.0 0.0 0.00 0.00 0.00 75 1013.3
20260906001559 29 113 0.0 0.0 0.00 0.00 0.00 73 1013.4
20260906001045 30 113 0.0 0.0 0.00 0.00 0.00 71 1013.4
20260906000646 30 113 0.0 1.6 0.00 0.00 0.00 71 1013.4
20260906000059 30 113 0.0 1.6 0.00 0.00 0.00 70 1013.5
20260905235559 30 98 0.0 1.6 0.00 0.00 0.00 68 1013.5
20260905235058 30 97 0.0 1.6 0.00 0.00 0.00 69 1013.7
20260905234557 30 92 0.0 3.2 0.00 0.00 0.00 71 1013.6
20260905234057 31 92 0.0 3.2 0.00 0.00 0.00 69 1013.6
20260905233558 31 121 0.0 1.6 0.00 0.00 0.00 67 1013.7
20260905233058 31 113 0.0 3.2 0.00 0.00 0.00 68 1013.7
20260905232557 31 125 0.0 3.2 0.00 0.00 0.00 68 1013.7
20260905232057 31 165 0.0 4.8 0.00 0.00 0.00 67 1013.6
20260905231559 31 135 1.6 4.8 0.00 0.00 0.00 69 1013.6
20260905231057 31 143 0.0 3.2 0.00 0.00 0.00 69 1013.7
20260905230656 31 109 0.0 3.2 0.00 0.00 0.00 67 1013.6
20260905230052 31 128 0.0 1.6 0.00 0.00 0.00 69 1013.4
20260905225551 31 128 0.0 1.6 0.00 0.00 0.00 67 1013.5
20260905225051 31 128 0.0 1.6 0.00 0.00 0.00 67 1013.4
20260905224552 31 128 0.0 1.6 0.00 0.00 0.00 68 1013.5
20260905224054 31 143 0.0 1.6 0.00 0.00 0.00 66 1013.5
20260905223551 31 141 0.0 3.2 0.00 0.00 0.00 66 1013.4
20260905223055 31 144 0.0 3.2 0.00 0.00 0.00 64 1013.5
20260905222551 31 132 0.0 3.2 0.00 0.00 0.00 63 1013.5
20260905222050 31 169 0.0 3.2 0.00 0.00 0.00 63 1013.5
20260905221557 31 136 0.0 8.0 0.00 0.00 0.00 63 1013.6
20260905221051 31 136 1.6 8.0 0.00 0.00 0.00 64 1013.6
20260905220650 32 145 0.0 6.4 0.00 0.00 0.00 62 1013.5
20260905220046 32 133 1.6 6.4 0.00 0.00 0.00 60 1013.6
20260905215546 33 121 1.6 6.4 0.00 0.00 0.00 55 1013.7
20260905215045 33 123 1.6 6.4 0.00 0.00 0.00 58 1013.7
20260905214548 33 116 1.6 6.4 0.00 0.00 0.00 56 1013.7
20260905214046 34 136 3.2 6.4 0.00 0.00 0.00 51 1013.6
20260905213546 34 92 1.6 8.0 0.00 0.00 0.00 53 1013.6
20260905213048 33 148 1.6 9.7 0.00 0.00 0.00 55 1013.6
20260905212547 33 109 1.6 9.7 0.00 0.00 0.00 55 1013.6
20260905212045 34 117 1.6 6.4 0.00 0.00 0.00 52 1013.6
20260905211547 35 128 3.2 8.0 0.00 0.00 0.00 49 1013.7
20260905211045 35 67 1.6 9.7 0.00 0.00 0.00 52 1013.6
20260905210644 36 96 3.2 9.7 0.00 0.00 0.00 46 1013.6
20260905210117 36 110 4.8 12.9 0.00 0.00 0.00 46 1013.6
20260905205603 36 101 1.6 9.7 0.00 0.00 0.00 47 1013.6
20260905205059 36 331 3.2 14.5 0.00 0.00 0.00 44 1013.6
20260905204601 36 38 3.2 14.5 0.00 0.00 0.00 44 1013.8
20260905204058 36 65 1.6 9.7 0.00 0.00 0.00 47 1014.0
20260905203602 37 19 1.6 9.7 0.00 0.00 0.00 43 1013.9
20260905203158 37 154 3.2 9.7 0.00 0.00 0.00 44 1014.0
20260905202557 36 360 3.2 8.0 0.00 0.00 0.00 44 1014.1
20260905202102 36 63 1.6 12.9 0.00 0.00 0.00 48 1014.0
20260905201556 36 96 1.6 12.9 0.00 0.00 0.00 46 1014.3
20260905201055 36 61 1.6 14.5 0.00 0.00 0.00 45 1014.4
20260905200655 37 84 4.8 17.7 0.00 0.00 0.00 43 1014.4
20260905200115 37 75 8.0 19.3 0.00 0.00 0.00 42 1014.4
20260905195554 38 38 3.2 9.7 0.00 0.00 0.00 44 1014.3
20260905195052 37 30 3.2 8.0 0.00 0.00 0.00 43 1014.5
20260905194552 37 319 3.2 8.0 0.00 0.00 0.00 42 1014.3
20260905194056 37 304 4.8 11.3 0.00 0.00 0.00 42 1014.4
20260905193551 37 60 3.2 16.1 0.00 0.00 0.00 44 1014.6
20260905193051 37 57 6.4 16.1 0.00 0.00 0.00 43 1014.6
20260905192550 37 13 1.6 12.9 0.00 0.00 0.00 43 1014.6
20260905192051 37 85 3.2 12.9 0.00 0.00 0.00 43 1014.6
20260905191550 37 355 6.4 12.9 0.00 0.00 0.00 42 1014.7
20260905191049 37 16 6.4 12.9 0.00 0.00 0.00 42 1014.7
20260905190648 37 348 4.8 12.9 0.00 0.00 0.00 42 1014.7
20260905190054 37 286 3.2 8.0 0.00 0.00 0.00 42 1014.8
20260905185552 37 209 4.8 8.0 0.00 0.00 0.00 41 1014.9
20260905185051 37 125 3.2 6.4 0.00 0.00 0.00 43 1015.0
20260905184600 35 12 1.6 8.0 0.00 0.00 0.00 50 1015.1
20260905184053 35 31 1.6 11.3 0.00 0.00 0.00 46 1015.2
20260905183551 36 355 6.4 11.3 0.00 0.00 0.00 44 1015.1
20260905183051 36 52 4.8 12.9 0.00 0.00 0.00 46 1015.3
20260905182550 36 343 6.4 12.9 0.00 0.00 0.00 45 1015.3
20260905182050 37 360 4.8 12.9 0.00 0.00 0.00 47 1015.2
20260905181550 37 28 4.8 12.9 0.00 0.00 0.00 44 1015.2
20260905181047 37 313 4.8 9.7 0.00 0.00 0.00 46 1015.3
20260905180647 36 321 3.2 9.7 0.00 0.00 0.00 45 1015.4
20260905180051 37 67 3.2 9.7 0.00 0.00 0.00 45 1015.4
20260905175552 36 25 1.6 4.8 0.00 0.00 0.00 45 1015.5
20260905175051 36 241 1.6 8.0 0.00 0.00 0.00 43 1015.6
20260905174550 36 346 3.2 12.9 0.00 0.00 0.00 44 1015.7
20260905174049 36 336 4.8 12.9 0.00 0.00 0.00 43 1015.8
20260905173548 36 283 3.2 8.0 0.00 0.00 0.00 46 1015.8
20260905173052 36 302 1.6 6.4 0.00 0.00 0.00 46 1016.0
20260905172547 36 186 1.6 6.4 0.00 0.00 0.00 45 1016.1
20260905172046 36 76 1.6 8.0 0.00 0.00 0.00 45 1016.1
20260905171545 36 92 1.6 12.9 0.00 0.00 0.00 48 1016.2
20260905171043 36 49 4.8 12.9 0.00 0.00 0.00 48 1016.3
20260905170509 36 53 3.2 11.3 0.00 0.00 0.00 48 1016.4
20260905170007 36 112 3.2 11.3 0.00 0.00 0.00 53 1016.4
20260905165506 36 315 3.2 12.9 0.00 0.00 0.00 46 1016.5
20260905165008 35 355 4.8 12.9 0.00 0.00 0.00 47 1016.5
20260905164505 36 5 3.2 9.7 0.00 0.00 0.00 48 1016.6
20260905164004 35 306 3.2 6.4 0.00 0.00 0.00 48 1016.5
20260905163505 35 10 1.6 8.0 0.00 0.00 0.00 49 1016.5
20260905163002 35 324 4.8 8.0 0.00 0.00 0.00 49 1016.6
20260905162502 34 11 3.2 8.0 0.00 0.00 0.00 56 1016.5
20260905162100 33 9 0.0 4.8 0.00 0.00 0.00 60 1016.5